Location: Bear Trap Landing
(45.2437°N, 67.7928°W)
Time: 14:44:48
(UTC+00:00)

Envisat - Pass Details

Date: 11 March 2021
Orbit: 764 x 766 km, 98.1° (Epoch: 17 April)

Event Time Altitude Azimuth Distance (km) Brightness Sun altitude
Rises 10:01:19 0° 16° (NNE) 3,243 6.5 -9.5°
Reaches altitude 10° 10:03:39 10° 19° (NNE) 2,312 5.8 -9.1°
Maximum altitude 10:08:43 65° 101° (ESE) 841 3.5 -8.2°
Drops below altitude 10° 10:13:45 10° 184° (S) 2,294 5.4 -7.3°
Sets 10:16:03 0° 187° (S) 3,215 6.1 -6.9°
